Winnsboro, SC

8:17 PM EDT on August 21, 2017 (GMT -0400)
Fairfield County

Weather History for KFDW - November, 2012

Change the Weather History Date:

Wednesday, November 14, 2012

  Actual Average Record
Temperature  
Mean Temperature 48 °F -  
Max Temperature 55 °F 62 °F 78 °F (2011)
Min Temperature 42 °F 37 °F 28 °F (2013)
Degree Days  
Heating Degree Days 16    
Moisture  
Dew Point 38 °F    
Average Humidity 69    
Maximum Humidity 100    
Minimum Humidity 44    
Precipitation  
Precipitation 0.00 in - - ()
Sea Level Pressure  
Sea Level Pressure 30.37 in    
Wind  
Wind Speed 8 mph (NNE)    
Max Wind Speed 14 mph    
Max Gust Speed 23 mph    
Visibility 10 miles    
Events Rain    
Averages and records for this station are not official NWS values.
T = Trace of Precipitation, MM = Missing Value Source: NWS Daily Summary

Daily Weather History Graph

Daily Weather History Graph

Search for Another Location

Airport or City:

Trip Planner

Search our weather history database for the weather conditions in past years. The results will help you decide how hot, cold, wet, or windy it might be!

Date:

Astronomy

Nov. 14, 2012 Rise Set
Actual Time 6:57 AM EST 5:20 PM EST
Civil Twilight 6:30 AM EST 5:47 PM EST
Nautical Twilight 6:00 AM EST 6:17 PM EST
Astronomical Twilight 5:30 AM EST 6:47 PM EST
Moon 7:42 AM EST (11/14) 6:10 PM EST (11/14)
Length of Visible Light 11h 16m
Length of Day
10h 23m
New Moon, 1% of the Moon is Illuminated
Nov 14
New Moon
Nov 20
First Quarter
Nov 28
Full
Dec 6
Last Quarter
Dec 13
New

Hourly Weather History & Observations

Time (EST) Temp. Windchill Dew Point Humidity Pressure Visibility Wind Dir Wind Speed Gust Speed Precip Events Conditions
12:15 AM 48.2 °F - 44.6 °F 87% 30.36 in 10.0 mi NE 8.1 mph - N/A   Mostly Cloudy
12:35 AM 48.2 °F - 44.6 °F 87% 30.35 in 10.0 mi NNE 6.9 mph - N/A   Mostly Cloudy
12:55 AM 46.4 °F 42.4 °F 44.6 °F 93% 30.35 in 10.0 mi NNE 8.1 mph - N/A   Mostly Cloudy
1:15 AM 46.4 °F 41.9 °F 44.6 °F 93% 30.35 in 10.0 mi NNE 9.2 mph - N/A   Scattered Clouds
1:35 AM 46.4 °F 42.9 °F 44.6 °F 93% 30.35 in 10.0 mi NNE 6.9 mph - N/A   Clear
1:55 AM 46.4 °F 44.3 °F 44.6 °F 93% 30.35 in 10.0 mi NNE 4.6 mph - N/A   Clear
2:15 AM 44.6 °F 40.7 °F 42.8 °F 93% 30.35 in 10.0 mi NNE 6.9 mph - N/A   Clear
2:35 AM 44.6 °F 41.4 °F 42.8 °F 93% 30.35 in 10.0 mi NNE 5.8 mph - N/A   Clear
2:55 AM 44.6 °F 41.4 °F 42.8 °F 93% 30.35 in 10.0 mi NNE 5.8 mph - N/A   Clear
3:15 AM 44.6 °F 40.7 °F 42.8 °F 93% 30.35 in 10.0 mi NNE 6.9 mph - N/A   Clear
3:35 AM 44.6 °F 39.7 °F 42.8 °F 93% 30.35 in 10.0 mi NNE 9.2 mph - N/A   Mostly Cloudy
3:55 AM 44.6 °F 40.7 °F 42.8 °F 93% 30.35 in 10.0 mi NNE 6.9 mph - N/A   Overcast
4:15 AM 44.6 °F 40.7 °F 42.8 °F 93% 30.35 in 10.0 mi NNE 6.9 mph - N/A   Overcast
4:35 AM 44.6 °F 40.2 °F 42.8 °F 93% 30.35 in 10.0 mi NNE 8.1 mph - N/A   Overcast
4:55 AM 44.6 °F 40.7 °F 42.8 °F 93% 30.36 in 10.0 mi NNE 6.9 mph - N/A   Mostly Cloudy
5:15 AM 42.8 °F 38.0 °F 42.8 °F 100% 30.36 in 10.0 mi NNE 8.1 mph - N/A   Overcast
5:35 AM 44.6 °F 39.7 °F 41.0 °F 87% 30.36 in 10.0 mi NNE 9.2 mph - N/A   Overcast
5:55 AM 44.6 °F 40.2 °F 41.0 °F 87% 30.37 in 10.0 mi NNE 8.1 mph - N/A   Overcast
6:15 AM 42.8 °F 37.5 °F 41.0 °F 93% 30.38 in 10.0 mi NE 9.2 mph - N/A   Overcast
6:55 AM 42.8 °F 38.6 °F 39.2 °F 87% 30.38 in 10.0 mi NNE 6.9 mph - N/A   Overcast
7:15 AM 42.8 °F 40.1 °F 39.2 °F 87% 30.40 in 10.0 mi NNE 4.6 mph - N/A   Overcast
7:35 AM 42.8 °F 38.0 °F 39.2 °F 87% 30.39 in 10.0 mi NNE 8.1 mph - N/A   Overcast
7:55 AM 42.8 °F 38.6 °F 37.4 °F 81% 30.40 in 10.0 mi NNE 6.9 mph - N/A   Mostly Cloudy
8:15 AM 42.8 °F 38.0 °F 37.4 °F 81% 30.40 in 10.0 mi NNE 8.1 mph - N/A   Overcast
8:35 AM 42.8 °F 39.3 °F 37.4 °F 81% 30.41 in 10.0 mi NNE 5.8 mph 17.3 mph N/A   Mostly Cloudy
8:55 AM 42.8 °F 38.0 °F 35.6 °F 76% 30.42 in 10.0 mi NNE 8.1 mph - N/A   Mostly Cloudy
9:15 AM 44.6 °F 40.7 °F 35.6 °F 71% 30.42 in 10.0 mi NNE 6.9 mph - N/A   Mostly Cloudy
9:35 AM 44.6 °F 39.2 °F 35.6 °F 71% 30.43 in 10.0 mi NNE 10.4 mph - N/A   Mostly Cloudy
9:55 AM 46.4 °F 40.7 °F 35.6 °F 66% 30.43 in 10.0 mi NE 12.7 mph 16.1 mph N/A   Scattered Clouds
10:15 AM 46.4 °F 40.4 °F 35.6 °F 66% 30.43 in 10.0 mi NNE 13.8 mph 17.3 mph N/A   Scattered Clouds
10:35 AM 46.4 °F 41.1 °F 35.6 °F 66% 30.43 in 10.0 mi NE 11.5 mph 17.3 mph N/A   Scattered Clouds
10:55 AM 48.2 °F - 33.8 °F 58% 30.42 in 10.0 mi NNE 11.5 mph 21.9 mph N/A   Scattered Clouds
11:15 AM 48.2 °F - 33.8 °F 58% 30.43 in 10.0 mi NNE 10.4 mph 23.0 mph N/A   Scattered Clouds
11:35 AM 50.0 °F - 33.8 °F 54% 30.43 in 10.0 mi NNE 12.7 mph 23.0 mph N/A   Scattered Clouds
11:55 AM 50.0 °F - 33.8 °F 54% 30.43 in 10.0 mi NE 13.8 mph 19.6 mph N/A   Scattered Clouds
12:15 PM 51.8 °F - 32.0 °F 47% 30.42 in 10.0 mi NE 12.7 mph - N/A   Scattered Clouds
12:35 PM 51.8 °F - 33.8 °F 50% 30.41 in 10.0 mi NNE 9.2 mph 16.1 mph N/A   Scattered Clouds
12:55 PM 53.6 °F - 33.8 °F 47% 30.39 in 10.0 mi North 8.1 mph - N/A   Clear
1:15 PM 53.6 °F - 33.8 °F 47% 30.38 in 10.0 mi North 6.9 mph - N/A   Clear
1:55 PM 53.6 °F - 33.8 °F 47% 30.36 in 10.0 mi NE 10.4 mph - N/A   Scattered Clouds
2:15 PM 53.6 °F - 33.8 °F 47% 30.35 in 10.0 mi NE 9.2 mph - N/A   Scattered Clouds
2:35 PM 53.6 °F - 33.8 °F 47% 30.35 in 10.0 mi NE 10.4 mph - N/A   Mostly Cloudy
2:55 PM 55.4 °F - 33.8 °F 44% 30.35 in 10.0 mi NE 8.1 mph - N/A   Scattered Clouds
3:15 PM 53.6 °F - 33.8 °F 47% 30.34 in 10.0 mi NE 9.2 mph - N/A   Mostly Cloudy
3:35 PM 55.4 °F - 33.8 °F 44% 30.33 in 10.0 mi NNE 6.9 mph - N/A   Scattered Clouds
3:55 PM 53.6 °F - 35.6 °F 51% 30.31 in 10.0 mi ENE 10.4 mph - N/A   Scattered Clouds
4:15 PM 53.6 °F - 35.6 °F 51% 30.32 in 10.0 mi NE 11.5 mph - N/A   Scattered Clouds
5:15 PM 53.6 °F - 35.6 °F 51% 30.32 in 10.0 mi NE 8.1 mph - N/A   Overcast
5:55 PM 53.6 °F - 35.6 °F 51% 30.33 in 10.0 mi NE 8.1 mph - N/A   Overcast
6:15 PM 51.8 °F - 35.6 °F 54% 30.33 in 10.0 mi NE 9.2 mph - N/A   Overcast
6:35 PM 51.8 °F - 35.6 °F 54% 30.33 in 10.0 mi NE 6.9 mph - N/A   Overcast
6:55 PM 51.8 °F - 35.6 °F 54% 30.34 in 10.0 mi NE 8.1 mph - N/A   Overcast
7:15 PM 51.8 °F - 35.6 °F 54% 30.35 in 10.0 mi NE 6.9 mph - N/A   Overcast
7:55 PM 51.8 °F - 35.6 °F 54% 30.34 in 10.0 mi NE 8.1 mph - N/A   Overcast
8:15 PM 51.8 °F - 35.6 °F 54% 30.35 in 10.0 mi NNE 4.6 mph - N/A   Overcast
8:35 PM 51.8 °F - 35.6 °F 54% 30.35 in 10.0 mi NNE 6.9 mph - N/A   Overcast
8:55 PM 51.8 °F - 35.6 °F 54% 30.35 in 10.0 mi NNE 5.8 mph - N/A   Mostly Cloudy
9:15 PM 50.0 °F - 35.6 °F 58% 30.35 in 10.0 mi NNE 4.6 mph - N/A   Mostly Cloudy
9:35 PM 50.0 °F - 35.6 °F 58% 30.35 in 10.0 mi NNE 5.8 mph - N/A   Overcast
9:55 PM 50.0 °F - 35.6 °F 58% 30.35 in 10.0 mi NNE 6.9 mph - N/A   Overcast
10:15 PM 50.0 °F - 35.6 °F 58% 30.35 in 10.0 mi NE 9.2 mph - N/A   Mostly Cloudy
10:35 PM 50.0 °F - 35.6 °F 58% 30.33 in 10.0 mi NNE 6.9 mph - N/A   Mostly Cloudy
10:55 PM 50.0 °F - 35.6 °F 58% 30.33 in 10.0 mi NNE 11.5 mph - N/A Rain Light Rain
11:15 PM 50.0 °F - 35.6 °F 58% 30.33 in 10.0 mi NNE 6.9 mph - N/A   Mostly Cloudy
11:35 PM 50.0 °F - 35.6 °F 58% 30.33 in 10.0 mi NE 9.2 mph - N/A Rain Light Rain
11:55 PM 46.4 °F 41.5 °F 41.0 °F 81% 30.31 in 7.0 mi NE 10.4 mph 17.3 mph N/A Rain Rain